• In Hungary
  • List of Countries
  • For 7 days
  • Water Temperature
  • Satellite Maps
  • Weather Map
  • News
  • Weather Widgets
  • user-avatar
    Login

    Hourly Weather Gisborne

    Today, 17 November, Friday

    Time Temperature Precipitation Wind Pressure Humidity
    00:00 +10°C° 0 mm 3 mps 762 mmHg 97%
    01:00 +9°C° 0 mm 3 mps 762 mmHg 97%
    02:00 +9°C° 0 mm 3 mps 762 mmHg 96%
    03:00 +9°C° 0 mm 3 mps 762 mmHg 96%
    04:00 +9°C° 0 mm 2 mps 762 mmHg 94%
    05:00 +10°C° 0 mm 2 mps 762 mmHg 93%
    06:00 +10°C° 0 mm 2 mps 762 mmHg 90%
    07:00 +15°C° 0 mm 1 mps 761 mmHg 74%
    08:00 +20°C° 0 mm 1 mps 761 mmHg 57%
    09:00 +23°C° 0 mm 1 mps 761 mmHg 41%
    10:00 +24°C° 0 mm 2 mps 761 mmHg 38%
    11:00 +25°C° 0 mm 2 mps 760 mmHg 35%
    12:00 +26°C° 0 mm 3 mps 760 mmHg 34%
    13:00 +25°C° 0 mm 3 mps 760 mmHg 37%
    14:00 +23°C° 0 mm 4 mps 759 mmHg 41%
    15:00 +23°C° 0 mm 4 mps 759 mmHg 44%
    16:00 +22°C° 0 mm 4 mps 759 mmHg 49%
    17:00 +20°C° 0 mm 3 mps 760 mmHg 55%
    18:00 +19°C° 0 mm 2 mps 760 mmHg 61%
    19:00 +17°C° 0 mm 2 mps 760 mmHg 72%
    20:00 +15°C° 0 mm 2 mps 761 mmHg 82%
    21:00 +14°C° 0 mm 1 mps 761 mmHg 92%
    22:00 +13°C° 0 mm 2 mps 761 mmHg 94%
    23:00 +12°C° 0 mm 3 mps 761 mmHg 95%

    Tomorrow, 18 November, Saturday

    Time Temperature Precipitation Wind Pressure Humidity
    00:00 +12°C° 0 mm 3 mps 761 mmHg 97%
    01:00 +12°C° 0.1 mm 4 mps 761 mmHg 97%
    02:00 +13°C° 0.1 mm 4 mps 761 mmHg 97%
    03:00 +13°C° 0.1 mm 5 mps 760 mmHg 97%
    04:00 +13°C° 0.2 mm 5 mps 760 mmHg 96%
    05:00 +13°C° 0.2 mm 6 mps 760 mmHg 96%
    06:00 +13°C° 0.2 mm 6 mps 760 mmHg 96%
    07:00 +13°C° 0.2 mm 6 mps 760 mmHg 96%
    08:00 +13°C° 0.2 mm 6 mps 760 mmHg 96%
    09:00 +12°C° 0.2 mm 7 mps 761 mmHg 96%
    10:00 +12°C° 0.2 mm 7 mps 760 mmHg 96%
    11:00 +12°C° 0.2 mm 7 mps 760 mmHg 96%
    12:00 +12°C° 0.2 mm 7 mps 760 mmHg 96%
    13:00 +12°C° 0.4 mm 7 mps 760 mmHg 96%
    14:00 +12°C° 0.4 mm 7 mps 760 mmHg 97%
    15:00 +11°C° 0.4 mm 7 mps 760 mmHg 97%
    16:00 +11°C° 0.6 mm 7 mps 760 mmHg 97%
    17:00 +12°C° 0.6 mm 8 mps 760 mmHg 98%
    18:00 +12°C° 0.6 mm 8 mps 760 mmHg 98%
    19:00 +12°C° 0.6 mm 8 mps 760 mmHg 98%
    20:00 +12°C° 0.6 mm 8 mps 760 mmHg 98%
    21:00 +12°C° 0.6 mm 8 mps 760 mmHg 98%
    22:00 +12°C° 1.2 mm 8 mps 760 mmHg 98%
    23:00 +12°C° 1.2 mm 7 mps 760 mmHg 98%

    Day after tomorrow, 19 November, Sunday

    Time Temperature Precipitation Wind Pressure Humidity
    00:00 +12°C° 1.2 mm 7 mps 759 mmHg 98%
    01:00 +12°C° 1.3 mm 7 mps 759 mmHg 98%
    02:00 +11°C° 1.3 mm 7 mps 759 mmHg 98%
    03:00 +11°C° 1.3 mm 8 mps 758 mmHg 97%
    04:00 +11°C° 0.7 mm 8 mps 758 mmHg 97%
    05:00 +11°C° 0.7 mm 7 mps 758 mmHg 97%
    06:00 +11°C° 0.7 mm 7 mps 758 mmHg 97%
    07:00 +11°C° 0.8 mm 7 mps 758 mmHg 97%
    08:00 +11°C° 0.8 mm 7 mps 758 mmHg 97%
    09:00 +11°C° 0.8 mm 7 mps 758 mmHg 97%
    10:00 +11°C° 0.5 mm 7 mps 758 mmHg 97%
    11:00 +11°C° 0.5 mm 7 mps 758 mmHg 97%
    12:00 +11°C° 0.5 mm 7 mps 757 mmHg 96%
    13:00 +11°C° 0.4 mm 8 mps 757 mmHg 96%
    14:00 +11°C° 0.4 mm 8 mps 757 mmHg 96%
    15:00 +11°C° 0.4 mm 8 mps 757 mmHg 96%
    16:00 +11°C° 0.4 mm 8 mps 757 mmHg 96%
    17:00 +11°C° 0.4 mm 8 mps 757 mmHg 96%
    18:00 +11°C° 0.4 mm 7 mps 757 mmHg 96%
    19:00 +11°C° 0.1 mm 7 mps 757 mmHg 96%
    20:00 +11°C° 0.1 mm 7 mps 757 mmHg 96%
    21:00 +11°C° 0.1 mm 7 mps 757 mmHg 96%
    22:00 +11°C° 0.1 mm 6 mps 757 mmHg 96%
    23:00 +11°C° 0.1 mm 6 mps 757 mmHg 96%

    20 November, Monday

    Time Temperature Precipitation Wind Pressure Humidity
    00:00 +11°C° 0.1 mm 6 mps 757 mmHg 96%
    01:00 +11°C° 0.1 mm 6 mps 757 mmHg 96%
    02:00 +11°C° 0.1 mm 6 mps 757 mmHg 96%
    03:00 +11°C° 0.1 mm 6 mps 757 mmHg 96%
    04:00 +11°C° 0.1 mm 6 mps 757 mmHg 96%
    05:00 +11°C° 0.1 mm 6 mps 757 mmHg 96%
    06:00 +11°C° 0.1 mm 6 mps 758 mmHg 95%
    07:00 +11°C° 0.1 mm 6 mps 758 mmHg 93%
    08:00 +13°C° 0.1 mm 6 mps 758 mmHg 90%
    09:00 +13°C° 0.1 mm 6 mps 758 mmHg 88%
    10:00 +15°C° 0 mm 6 mps 758 mmHg 76%
    11:00 +17°C° 0 mm 7 mps 758 mmHg 64%
    12:00 +18°C° 0 mm 7 mps 758 mmHg 52%
    13:00 +18°C° 0 mm 7 mps 758 mmHg 50%
    14:00 +20°C° 0 mm 7 mps 758 mmHg 47%
    15:00 +20°C° 0 mm 6 mps 757 mmHg 44%
    16:00 +19°C° 0 mm 6 mps 758 mmHg 51%
    17:00 +17°C° 0 mm 6 mps 758 mmHg 57%
    18:00 +16°C° 0 mm 6 mps 758 mmHg 64%
    19:00 +15°C° 0.1 mm 5 mps 759 mmHg 73%
    20:00 +14°C° 0.1 mm 5 mps 759 mmHg 83%
    21:00 +13°C° 0.1 mm 5 mps 760 mmHg 92%
    22:00 +13°C° 0.1 mm 4 mps 760 mmHg 93%
    23:00 +13°C° 0.1 mm 4 mps 760 mmHg 95%

    21 November, Tuesday

    Time Temperature Precipitation Wind Pressure Humidity
    00:00 +12°C° 0.1 mm 4 mps 760 mmHg 97%
    01:00 +13°C° 0.1 mm 4 mps 759 mmHg 97%
    02:00 +13°C° 0.1 mm 5 mps 759 mmHg 97%
    03:00 +13°C° 0.1 mm 5 mps 759 mmHg 97%
    04:00 +12°C° 0.1 mm 5 mps 759 mmHg 97%
    05:00 +12°C° 0.1 mm 5 mps 760 mmHg 97%
    06:00 +12°C° 0.1 mm 5 mps 760 mmHg 96%
    07:00 +12°C° 0.2 mm 4 mps 760 mmHg 95%
    08:00 +13°C° 0.2 mm 4 mps 760 mmHg 94%
    09:00 +13°C° 0.2 mm 4 mps 761 mmHg 93%
    10:00 +13°C° 0.2 mm 4 mps 761 mmHg 93%
    11:00 +13°C° 0.2 mm 4 mps 761 mmHg 93%
    12:00 +13°C° 0.2 mm 4 mps 761 mmHg 93%
    13:00 +13°C° 0.1 mm 4 mps 761 mmHg 91%
    14:00 +14°C° 0.1 mm 4 mps 761 mmHg 90%
    15:00 +14°C° 0.1 mm 4 mps 761 mmHg 89%
    16:00 +14°C° 0.1 mm 4 mps 761 mmHg 90%
    17:00 +13°C° 0.1 mm 4 mps 761 mmHg 90%
    18:00 +13°C° 0.1 mm 4 mps 761 mmHg 91%
    19:00 +13°C° 0.1 mm 3 mps 762 mmHg 93%
    20:00 +12°C° 0.1 mm 3 mps 762 mmHg 95%
    21:00 +12°C° 0.1 mm 3 mps 763 mmHg 97%
    22:00 +12°C° 0.3 mm 3 mps 763 mmHg 97%
    23:00 +12°C° 0.3 mm 3 mps 763 mmHg 97%

    22 November, Wednesday

    Time Temperature Precipitation Wind Pressure Humidity
    00:00 +12°C° 0.3 mm 3 mps 763 mmHg 97%
    01:00 +11°C° 0.4 mm 3 mps 763 mmHg 97%
    02:00 +11°C° 0.4 mm 3 mps 763 mmHg 97%
    03:00 +11°C° 0.4 mm 3 mps 762 mmHg 97%
    04:00 +11°C° 0.3 mm 3 mps 763 mmHg 97%
    05:00 +12°C° 0.3 mm 2 mps 763 mmHg 97%
    06:00 +12°C° 0.3 mm 2 mps 763 mmHg 97%
    07:00 +12°C° 0.2 mm 2 mps 764 mmHg 95%
    08:00 +13°C° 0.2 mm 2 mps 764 mmHg 93%
    09:00 +14°C° 0.2 mm 2 mps 764 mmHg 91%
    10:00 +15°C° 0.2 mm 2 mps 764 mmHg 86%
    11:00 +16°C° 0.2 mm 3 mps 764 mmHg 80%
    12:00 +16°C° 0.2 mm 3 mps 764 mmHg 75%
    13:00 +16°C° 0.1 mm 3 mps 764 mmHg 74%
    14:00 +17°C° 0.1 mm 3 mps 764 mmHg 72%
    15:00 +17°C° 0.1 mm 4 mps 764 mmHg 70%
    16:00 +16°C° 0 mm 3 mps 765 mmHg 71%
    17:00 +16°C° 0 mm 3 mps 765 mmHg 72%
    18:00 +14°C° 0 mm 3 mps 765 mmHg 73%
    19:00 +14°C° 0 mm 2 mps 766 mmHg 80%
    20:00 +13°C° 0 mm 2 mps 766 mmHg 86%
    21:00 +10°C° 0 mm 2 mps 767 mmHg 92%
    22:00 +11°C° 0 mm 1 mps 767 mmHg 93%
    23:00 +11°C° 0 mm 1 mps 767 mmHg 94%
    Show more